User: anonymous   Login
Location: Unspecified
(0.0000°N, 0.0000°E)
Time: 17:49:13
(UTC+02:00)
Language:

Delta 168 - Orbit

View from above orbital plane
View from above orbital plane
View from above satellite
View from above satellite

Ground track
Ground track

The orbit data is extracted from the following two-line orbital elements,

1 14051U 83041B   17177.70509640 +.00001614 +00000-0 +13473-3 0  9994
2 14051 025.3335 298.1769 1097416 166.3239 196.9635 13.08357694579695
Epoch (UTC): 26 June 2017 16:55:20
Eccentricity: 0.1097416
inclination: 25.3335°
perigee height: 394 km
apogee height: 2064 km
right ascension of ascending node: 298.1769°
argument of perigee: 166.3239°
revolutions per day: 13.08357694
mean anomaly at epoch: 196.9635°
orbit number at epoch: 57969

The dashed part of the orbit path shows where the satellite is in the earth's shadow,  

DLR